Location: ShareBrained
(45.5589°N, 122.6491°W)
Time: 08:32:19
(UTC-08:00)

NOAA 19 - Pass Details

Date: 25 January 2020
Orbit: 840 x 861 km, 99.2° (Epoch: 25 February)

Event Time Altitude Azimuth Distance (km) Brightness Sun altitude
Rises 17:44:50 0° 187° (S) 3,408 8.8 -7.0°
Reaches altitude 10° 17:47:22 10° 196° (SSW) 2,474 8.2 -7.4°
Maximum altitude 17:52:24 37° 262° (W) 1,307 7.0 -8.2°
Drops below altitude 10° 17:57:28 10° 329° (NNW) 2,477 7.8 -9.1°
Sets 18:00:01 0° 338° (NNW) 3,415 8.4 -9.5°
